Weather History for KTPA - September, 2013

Change the Weather History Date:

Friday, September 20, 2013

  Actual Average Record
Temperature  
Mean Temperature 82 °F 81 °F  
Max Temperature 90 °F 89 °F 94 °F (1942)
Min Temperature 73 °F 74 °F 58 °F (1981)
Degree Days  
Heating Degree Days 0 0  
Month to date heating degree days 0 0  
Since 1 July heating degree days 0 0  
Cooling Degree Days 17 16  
Month to date cooling degree days 367 347  
Year to date cooling degree days 3004 2862  
Growing Degree Days 32 (Base 50)    
Moisture  
Dew Point 68 °F    
Average Humidity 69    
Maximum Humidity 94    
Minimum Humidity 43    
Precipitation  
Precipitation 0.00 in 0.20 in 4.06 in (1962)
Month to date precipitation 3.97 4.66  
Year to date precipitation 46.49 38.38  
Sea Level Pressure  
Sea Level Pressure 29.99 in    
Wind  
Wind Speed 4 mph (East)    
Max Wind Speed 9 mph    
Max Gust Speed 20 mph    
Visibility 10 miles    
Events      
T = Trace of Precipitation, MM = Missing Value Source: NWS Daily Summary

Daily Weather History Graph

Daily Weather History Graph

Search for Another Location

Airport or City:

Trip Planner

Search our weather history database for the weather conditions in past years. The results will help you decide how hot, cold, wet, or windy it might be!

Date:

Astronomy

Sep. 20, 2013 Rise Set
Actual Time 7:17 AM EDT 7:28 PM EDT
Civil Twilight 6:54 AM EDT 7:52 PM EDT
Nautical Twilight 6:27 AM EDT 8:19 PM EDT
Astronomical Twilight 5:59 AM EDT 8:46 PM EDT
Moon 8:14 PM EDT (9/20) 8:21 AM EDT (9/20)
Length of Visible Light 12h 57m
Length of Day
12h 10m
Full, 98% of the Moon is Illuminated
Sep 20
Full
Sep 26
Last Quarter
Oct 4
New
Oct 11
First Quarter
Oct 18
Full

Hourly Weather History & Observations

Time (EDT) Temp. Heat Index Dew Point Humidity Pressure Visibility Wind Dir Wind Speed Gust Speed Precip Events Conditions
12:53 AM 75.9 °F - 73.0 °F 91% 30.04 in 10.0 mi Calm Calm - N/A   Scattered Clouds
1:53 AM 75.9 °F - 72.0 °F 87% 30.03 in 10.0 mi ENE 3.5 mph - N/A   Partly Cloudy
2:53 AM 75.0 °F - 72.0 °F 90% 30.03 in 10.0 mi NNE 4.6 mph - N/A   Partly Cloudy
3:53 AM 75.0 °F - 72.0 °F 90% 30.02 in 10.0 mi Calm Calm - N/A   Partly Cloudy
4:53 AM 73.9 °F - 71.1 °F 91% 30.01 in 10.0 mi Calm Calm - N/A   Partly Cloudy
5:53 AM 73.9 °F - 71.1 °F 91% 30.01 in 10.0 mi Calm Calm - N/A   Partly Cloudy
6:53 AM 73.9 °F - 70.0 °F 87% 30.02 in 10.0 mi Calm Calm - N/A   Partly Cloudy
7:53 AM 73.9 °F - 69.1 °F 85% 30.03 in 10.0 mi NE 3.5 mph - N/A   Scattered Clouds
8:53 AM 77.0 °F - 70.0 °F 79% 30.04 in 10.0 mi NE 4.6 mph - N/A   Partly Cloudy
9:53 AM 80.1 °F 83.2 °F 70.0 °F 71% 30.04 in 10.0 mi ENE 6.9 mph - N/A   Partly Cloudy
10:53 AM 82.9 °F 86.5 °F 69.1 °F 63% 30.04 in 10.0 mi Variable 5.8 mph - N/A   Partly Cloudy
11:53 AM 84.9 °F 88.8 °F 69.1 °F 59% 30.03 in 10.0 mi Variable 4.6 mph - N/A   Scattered Clouds
12:53 PM 86.0 °F 89.4 °F 68.0 °F 55% 30.02 in 10.0 mi Variable 3.5 mph - N/A   Scattered Clouds
1:53 PM 88.0 °F 90.7 °F 66.9 °F 49% 29.99 in 10.0 mi Variable 5.8 mph - N/A   Mostly Cloudy
2:53 PM 88.0 °F 90.3 °F 66.0 °F 48% 29.96 in 10.0 mi Calm Calm - N/A   Mostly Cloudy
3:53 PM 90.0 °F 91.7 °F 64.9 °F 43% 29.94 in 10.0 mi Variable 4.6 mph - N/A   Scattered Clouds
4:53 PM 89.1 °F 90.3 °F 64.0 °F 43% 29.92 in 10.0 mi Variable 5.8 mph - N/A   Scattered Clouds
5:53 PM 88.0 °F 89.3 °F 64.0 °F 45% 29.92 in 10.0 mi ENE 4.6 mph - N/A   Scattered Clouds
6:53 PM 87.1 °F 87.8 °F 63.0 °F 44% 29.91 in 10.0 mi Variable 3.5 mph - N/A   Scattered Clouds
7:53 PM 84.9 °F 87.1 °F 66.0 °F 53% 29.91 in 10.0 mi ESE 6.9 mph - N/A   Partly Cloudy
8:53 PM 82.9 °F 85.0 °F 66.0 °F 56% 29.93 in 10.0 mi ESE 5.8 mph - N/A   Mostly Cloudy
9:53 PM 82.0 °F 84.5 °F 66.9 °F 60% 29.95 in 10.0 mi ESE 8.1 mph - N/A   Partly Cloudy
10:53 PM 80.1 °F 82.1 °F 66.0 °F 62% 29.95 in 10.0 mi ESE 9.2 mph - N/A   Partly Cloudy
11:53 PM 79.0 °F - 66.0 °F 64% 29.96 in 10.0 mi ESE 5.8 mph - N/A   Clear